Weather Roundup
Issued by NWS Chicago, IL

Home | Current Version | Previous Version | Text Only | Print | Product List | Glossary On
Versions: 1 2 3 4 5 6 7 8 9 10 11 12 13 14 15 16 17 18 19 20 21 22 23 24 25 26 27 28 29 30 31 32 33 34 35 36 37 38 39 40 41 42 43 44 45 46 47 48 49 50
000
NZUS59 KLOT 250600
HRRLOT

CHICAGO AREA WEATHER ROUNDUP
NATIONAL WEATHER SERVICE CHICAGO/ROMEOVILLE IL
100 AM CDT FRI APR 25 2014

NOTE: "FAIR" INDICATES FEW OR NO CLOUDS BELOW 12,000 FEET WITH NO
SIGNIFICANT WEATHER AND/OR OBSTRUCTIONS TO VISIBILITY.

* THESE STATIONS ARE NOT UNDER NWS QUALITY CONTROL. THEY ALSO MAY NOT
  REPORT WEATHER SUCH AS PRECIPITATION OR FOG.

ILZ005-006-012>014-019>023-250700-
NORTHEAST ILLINOIS

CITY           SKY/WX    TMP DP  RH WIND       PRES   REMARKS
OHARE          LGT RAIN  51  41  68 N3        29.64R
6HR MIN TEMP:  51; 6HR MAX TEMP:  62; 6HR PCP:  0.03;

MIDWAY         LGT RAIN  56  36  47 SE9       29.63S
6HR MIN TEMP:  56; 6HR MAX TEMP:  62; 6HR PCP: TRACE;

AURORA         LGT RAIN  54  41  61 E7        29.64R
6HR MIN TEMP:  54; 6HR MAX TEMP:  61; 6HR PCP:  0.02;

WAUKEGAN       LGT RAIN  44  36  73 E3        29.68R
6HR MIN TEMP:  43; 6HR MAX TEMP:  47; 6HR PCP:  0.07;

DUPAGE AIRPORT RAIN      51  44  77 E3        29.64R
6HR MIN TEMP:  51; 6HR MAX TEMP:  61; 6HR PCP:  0.04;

WHEELING       LGT RAIN  49  38  65 NE6       29.67R
6HR MIN TEMP:  49; 6HR MAX TEMP:  62; 6HR PCP:  0.02;

NORTHERLY IS     N/A     49  41  74 SE2         N/A
$$

WIZ051-052-058>065-066-070>072-250700-
SOUTHEAST WISCONSIN

CITY           SKY/WX    TMP DP  RH WIND       PRES   REMARKS
MILWAUKEE      RAIN      42  37  82 SE8       29.71S
6HR MIN TEMP:  42; 6HR MAX TEMP:  50; 6HR PCP:  0.08;

KENOSHA*       LGT RAIN  45  38  76 SE5       29.70R
RACINE*        LGT RAIN  45  37  73 SE7       29.72R
$$

INZ001>003-010>013-019-020-250700-
NORTHWEST INDIANA

CITY           SKY/WX    TMP DP  RH WIND       PRES   REMARKS
GARY*          RAIN      57  32  38 SE12G17   29.64S
6HR MIN TEMP:  57; 6HR MAX TEMP:  62;

MICHIGAN CITY* NOT AVBL
RENSSELAER*    NOT AVBL
VALPARAISO     CLOUDY    52  32  46 E9        29.66F
$$

LMZ740>746-250700-
SOUTHERN LAKE MICHIGAN

STATION/POSITION TIME  SKY/WX   TEMP WIND        PRES    VSBY
                                AIR  DIR/SP/G
                 (UTC)          (F)  (DEG/KT/KT) (MB)    (MI)
HARRISON CRIB    0500            48  110/ 13/ 15   N/A
BURNHAM HARBOR   0600            49  120/  2/  6   N/A
CALUMET HARBOR   0500            56  130/ 10/ 19 1004.3F
BURNS HARBOR     NOT AVBL
MICHIGAN CITY    0500            54  100/ 15/ 23   N/A
$$

ABBREVIATIONS USED IN REMARKS
   TC - TEMPERATURE IN CELSIUS
  WCI - WIND CHILL INDEX
   HX - HEAT INDEX
  VSB - VISIBILITY
$$



USA.gov is the U.S. government's official web portal to all federal, state and local government web resources and services.